Location: Unspecified
(0.0000°N, 0.0000°E)
Time: 10:22:04
(UTC+00:00)

COSMOS 2251 DEB - Pass Details

Date: 19 February 2026
Orbit: 744 x 1394 km, 73.9° (Epoch: 9 March)

Event Time Altitude Azimuth Distance (km) Brightness Sun altitude
Exits shadow 03:24:30 45° 147° (SSE) 1,745 ? -41.3°
Drops below altitude 10° 03:30:05 10° 161° (SSE) 3,445 ? -40.0°
Sets 03:33:03 0° 163° (SSE) 4,445 ? -39.3°
